Cosmos 2237 Rocket - Orbit

View from above orbital plane
View from above orbital plane
View from above satellite
View from above satellite

Ground track
Ground track

The orbit data is extracted from the following two-line orbital elements,

1 22566U 93016B   13144.47156725  .00000153  00000-0  10397-3 0  7934
2 22566 071.0095 303.0499 0012009 239.0798 120.9144 14.14782781 41260
Epoch (UTC): 24 May 2013 11:19:03
Eccentricity: 0.0012009
inclination: 71.0095°
perigee height: 834 km
apogee height: 852 km
right ascension of ascending node: 303.0499°
argument of perigee: 239.0798°
revolutions per day: 14.14782781
mean anomaly at epoch: 120.9144°
orbit number at epoch: 4126

The dashed part of the orbit path shows where the satellite is in the earth's shadow,  

Developed and maintained by Chris Peat, Heavens-Above GmbH. Please read the updated FAQ before sending e-mail. Imprint. DLR